Weather in Zandvoort

Netherlands     52°22′16″N   4°31′55″E
temp.,
°C
wind,
m/s
gust,
m/s
humid.,
%
clouds,
%
prec.,
mm/h
press.,
hPa
HPBL,
m
1 march, mon
mon101:00+6e48890 0.0 1035246
04:00+5e48880 0.0 1034277
07:00+4e49850 0.0 1034293
10:00+5e47750 0.0 1034306
13:00+8ene46620 0.0 1034293
16:00+10ene46600 0.0 1032306
19:00+8ene47690 0.0 1032223
22:00+7e47740 0.0 1032176
2 march, tue
tue201:00+6e36780 0.0 1032156
04:00+5e35810 0.0 1031115
07:00+5ese35800 0.0 1031127
10:00+7e35720 0.0 1031179
13:00+10ese35630 0.0 1031341
16:00+11se35630 0.0 1029358
19:00+9ese33740 0.0 102967
22:00+8se23770 0.0 102948
3 march, wed
wed301:00+7sse23790 0.0 102938
04:00+7s23820 0.0 102828
07:00+7ssw23870 0.0 102734
10:00+8sw23834 0.0 102798
13:00+10wsw34742 0.0 1026225
16:00+9wnw347442 0.0 1025164
19:00+8nw227566 0.0 1024100
22:00+7nw1175100 0.1 102344
4 march, thu
thu401:00+7ne0174100 0.2 102165
04:00+7nnw2281100 0.8 1019105
07:00+6nne4691100 4.6 1019272
10:00+5nne4786100 1.9 1018416
13:00+5n6779100 2.0 1019648
16:00+6n6874100 0.0 1019931
19:00+4n8107288 0.0 10201042
22:00+4n796998 0.1 10211132
5 march, fri
fri501:00+4ne687199 0.2 10221081
04:00+3ne585773 0.1 1023941
07:00+3nne576037 0.1 1025890
10:00+4n465910 0.0 10261216
13:00+5n685853 0.1 10271410
16:00+5n795781 0.1 10271447
19:00+4n7106069 0.1 10281365
22:00+4nne69610 0.0 10311123